DB0TGO-13 Weather Reports


Display with metric or nautical units.
time (UTC)temp
F
wind
direction
speed
MPH
gust
MPH
rain 1hr
in
rain 24hr
in
rain mn
in
humidity
%
barometer
mb
20260509114502 58 60 3.0 0.0 0.00 0.00 0.00 49 1015.7
20260509113003 58 60 3.0 0.0 0.00 0.00 0.00 49 1015.7
20260509111502 60 60 3.0 0.0 0.00 0.00 0.00 48 1015.8
20260509110002 60 280 3.0 0.0 0.00 0.00 0.00 48 1015.8
20260509104502 59 280 3.0 0.0 0.00 0.00 0.00 53 1015.9
20260509103002 59 280 3.0 0.0 0.00 0.00 0.00 53 1015.9
20260509101502 57 280 3.0 0.0 0.00 0.00 0.00 52 1016.1
20260509100002 57 40 3.0 0.0 0.00 0.00 0.00 52 1016.1
20260509094502 56 40 3.0 0.0 0.00 0.00 0.00 59 1016.1
20260509093002 56 30 3.0 0.0 0.00 0.00 0.00 59 1016.1
20260509091503 55 40 3.0 0.0 0.00 0.00 0.00 66 1016.2
20260509090002 55 40 3.0 0.0 0.00 0.00 0.00 66 1016.2
20260509084502 54 30 3.0 0.0 0.00 0.00 0.00 65 1016.1
20260509083002 54 30 3.0 0.0 0.00 0.00 0.00 65 1016.1
20260509081502 52 30 3.0 0.0 0.00 0.00 0.00 69 1016.1
20260509080002 52 80 3.0 0.0 0.00 0.00 0.00 69 1016.1
20260509074502 51 80 3.0 0.0 0.00 0.00 0.00 73 1016.0
20260509073002 51 50 3.0 0.0 0.00 0.00 0.00 73 1016.0
20260509071502 51 50 3.0 0.0 0.00 0.00 0.00 71 1015.9
20260509070002 51 350 1.0 0.0 0.00 0.00 0.00 71 1015.9
20260509064502 50 350 1.0 0.0 0.00 0.00 0.00 74 1015.9
20260509063002 50 50 1.0 0.0 0.00 0.00 0.00 74 1015.9
20260509061502 49 30 0.0 0.0 0.00 0.00 0.00 78 1015.8
20260509060002 49 30 0.0 0.0 0.00 0.00 0.00 78 1015.8
20260509054502 49 30 0.0 0.0 0.00 0.00 0.00 77 1015.7
20260509053002 49 270 1.0 0.0 0.00 0.00 0.00 77 1015.7
20260509051502 48 60 2.0 0.0 0.00 0.00 0.00 81 1015.4
20260509050002 48 60 2.0 0.0 0.00 0.00 0.00 81 1015.4
20260509044502 48 60 2.0 0.0 0.00 0.00 0.00 79 1015.5
20260509043002 48 90 3.0 0.0 0.00 0.00 0.00 79 1015.5
20260509041502 47 80 2.0 0.0 0.00 0.00 0.00 78 1015.5
20260509040002 47 80 2.0 0.0 0.00 0.00 0.00 78 1015.5
20260509034502 47 70 2.0 0.0 0.00 0.00 0.00 77 1015.6
20260509033002 47 70 2.0 0.0 0.00 0.00 0.00 77 1015.6
20260509031502 48 50 2.0 0.0 0.00 0.00 0.00 74 1015.5
20260509030004 48 50 2.0 0.0 0.00 0.00 0.00 74 1015.5
20260508204502 53 80 4.0 0.0 0.00 0.00 0.00 68 1015.5
20260508203003 53 80 1.0 0.0 0.00 0.00 0.00 68 1015.5
20260508201502 52 90 3.0 0.0 0.00 0.00 0.00 72 1015.4
20260508200002 52 90 3.0 0.0 0.00 0.00 0.00 72 1015.4
20260508194502 53 80 4.0 0.0 0.00 0.00 0.00 69 1015.2
20260508193002 53 80 4.0 0.0 0.00 0.00 0.00 69 1015.2
20260508191503 53 80 4.0 0.0 0.00 0.00 0.00 65 1014.8
20260508190002 53 70 5.0 0.0 0.00 0.00 0.00 65 1014.8
20260508184502 54 70 5.0 0.0 0.00 0.00 0.00 62 1014.7
20260508183002 54 80 6.0 0.0 0.00 0.00 0.00 62 1014.7
20260508181502 55 80 6.0 0.0 0.00 0.00 0.00 61 1014.5
20260508180002 55 70 6.0 0.0 0.00 0.00 0.00 61 1014.5
20260508174502 55 70 6.0 0.0 0.00 0.00 0.00 60 1014.4
20260508173002 55 70 6.0 0.0 0.00 0.00 0.00 60 1014.4
20260508171502 55 60 6.0 0.0 0.00 0.00 0.00 62 1014.4
20260508170002 55 60 6.0 0.0 0.00 0.00 0.00 62 1014.4
20260508164502 56 70 4.0 0.0 0.00 0.00 0.00 60 1014.3
20260508163002 56 70 4.0 0.0 0.00 0.00 0.00 60 1014.3
20260508161503 55 70 4.0 0.0 0.00 0.00 0.00 58 1014.3
20260508160003 55 50 3.0 0.0 0.00 0.00 0.00 58 1014.3
20260508154503 55 50 3.0 0.0 0.00 0.00 0.00 60 1014.4
20260508153002 55 50 7.0 0.0 0.00 0.00 0.00 60 1014.4
20260508151503 55 50 7.0 0.0 0.00 0.00 0.00 57 1014.4
20260508150003 55 60 6.0 0.0 0.00 0.00 0.00 57 1014.4
20260508144502 56 30 3.0 0.0 0.00 0.00 0.00 55 1014.5
20260508143002 56 30 3.0 0.0 0.00 0.00 0.00 55 1014.5
20260508140003 55 30 2.0 0.0 0.00 0.00 0.00 60 1014.9
20260508134502 55 30 2.0 0.0 0.00 0.00 0.00 60 1014.9
20260508133002 55 30 2.0 0.0 0.00 0.00 0.00 60 1014.9
20260508131502 54 60 1.0 0.0 0.00 0.00 0.00 59 1015.1
20260508130002 54 60 1.0 0.0 0.00 0.00 0.00 59 1015.1
20260508124502 54 350 2.0 0.0 0.00 0.00 0.00 63 1015.0
20260508123002 54 350 2.0 0.0 0.00 0.00 0.00 63 1015.0
20260508121502 52 80 4.0 0.0 0.00 0.00 0.00 64 1015.2
20260508120002 52 80 4.0 0.0 0.00 0.00 0.00 64 1015.2